Date,TemperatureHighF,TemperatureAvgF,TemperatureLowF,DewpointHighF,DewpointAvgF,DewpointLowF,HumidityHigh,HumidityAvg,HumidityLow,PressureMaxIn,PressureMinIn,WindSpeedMaxMPH,WindSpeedAvgMPH,GustSpeedMaxMPH,PrecipitationSumIn
2013-1-1,59,54,51,47,45,44,82,74,65,30.15,30.08,5,2,5,0.00
2013-1-2,60,52,47,50,47,43,91,81,67,30.30,30.15,2,0,5,0.00
2013-1-3,60,55,49,51,47,43,89,76,66,30.41,30.32,3,1,4,0.00
2013-1-4,61,55,49,43,40,35,72,59,38,30.33,30.09,4,0,5,0.00
2013-1-5,59,54,50,40,36,32,67,51,37,30.06,29.79,6,1,9,0.00
2013-1-6,53,49,44,41,37,34,76,65,56,29.92,29.71,11,5,17,0.01
2013-1-7,57,47,42,33,29,26,60,50,36,29.97,29.86,10,3,15,0.00
2013-1-8,41,38,36,33,30,24,85,72,56,30.22,30.09,11,6,14,0.04
2013-1-9,47,41,37,33,26,22,66,55,46,30.25,30.17,5,1,7,0.00
2013-1-10,48,42,40,33,30,25,72,64,41,30.19,30.17,2,0,3,0.00
2013-1-11,57,56,55,49,48,47,77,74,72,29.87,29.84,1,0,2,0.07
2013-1-12,61,54,49,49,46,43,87,74,57,30.01,29.82,5,1,9,0.00
2013-1-13,61,52,46,45,42,40,83,71,50,30.22,30.05,4,1,8,0.00
2013-1-14,59,54,50,50,46,44,82,75,67,30.28,30.23,9,3,11,0.00
2013-1-15,61,57,51,52,50,47,85,77,69,30.25,30.08,11,4,15,0.00
2013-1-16,61,57,52,54,50,44,92,78,61,29.97,29.69,16,8,22,1.07
2013-1-17,60,56,52,52,45,42,76,67,60,29.78,29.69,10,4,16,0.00
2013-1-18,60,57,54,52,49,41,86,74,60,29.62,29.47,12,7,17,0.14
2013-1-19,57,53,48,43,41,39,75,63,52,29.87,29.54,6,3,9,0.00
2013-1-20,64,58,50,56,49,41,84,73,59,29.94,29.86,8,3,11,0.00
2013-1-21,63,60,57,56,54,50,87,80,63,29.91,29.66,14,6,17,0.00
2013-1-22,64,60,56,52,49,47,79,68,54,29.79,29.67,5,2,8,0.00
2013-1-23,62,58,55,49,45,42,73,62,50,29.96,29.80,5,2,9,0.00
2013-1-24,63,57,51,54,50,43,87,75,70,29.95,29.60,15,6,19,0.48
2013-1-25,59,53,49,51,46,43,86,76,61,29.65,29.50,13,3,15,0.46
2013-1-26,58,53,48,49,46,43,87,78,66,29.65,29.44,6,2,8,0.36
2013-1-27,54,50,48,44,42,41,85,75,64,29.94,29.67,5,2,10,0.01
2013-1-28,56,52,48,45,42,40,81,70,60,29.99,29.90,5,2,6,0.00
2013-1-29,52,50,47,42,41,38,81,71,62,30.10,30.00,8,4,9,0.00
2013-1-30,58,51,45,44,37,28,76,60,35,30.09,29.95,4,1,6,0.00
2013-1-31,60,54,48,47,40,32,71,59,42,29.99,29.83,12,2,13,0.00
2013-2-1,59,55,48,45,35,28,66,47,33,30.06,29.95,7,2,11,0.00
2013-2-2,63,56,50,55,48,43,84,74,62,29.89,29.76,7,2,12,0.00
2013-2-3,64,61,59,55,54,53,86,79,69,29.83,29.77,17,10,29,0.00
2013-2-4,66,62,58,57,54,51,88,77,61,29.98,29.91,8,3,14,0.00
2013-2-5,65,60,54,54,51,47,89,73,61,29.99,29.84,6,2,7,0.00
2013-2-6,61,56,51,53,49,45,84,76,62,29.84,29.67,6,2,8,0.00
2013-2-7,61,58,53,53,50,45,84,74,65,29.71,29.52,15,8,20,0.13
2013-2-8,58,55,52,46,42,39,78,62,54,29.73,29.54,8,3,9,0.09
2013-2-9,60,54,46,44,42,39,83,63,48,29.87,29.76,6,2,8,0.00
2013-2-10,59,54,50,42,40,39,69,60,49,29.88,29.79,4,2,7,0.00
2013-2-11,54,51,48,40,37,33,73,60,45,30.04,29.78,8,4,11,0.00
2013-2-12,59,55,45,49,44,36,74,68,53,30.07,30.00,8,4,13,0.00
2013-2-13,58,55,48,50,47,45,91,75,66,29.99,29.89,14,8,27,1.42
2013-2-14,56,51,48,49,46,44,88,84,71,29.90,29.70,9,2,10,0.43
2013-2-15,53,50,47,46,44,42,87,79,70,30.00,29.68,10,2,10,0.11
2013-2-16,57,52,48,47,45,43,85,77,64,30.06,30.01,5,1,5,0.04
2013-2-17,49,48,46,46,42,40,90,81,74,30.06,29.95,9,4,13,0.54
2013-2-18,55,48,43,42,39,38,83,71,56,30.08,30.04,4,2,6,0.00
2013-2-19,58,53,50,50,45,40,88,74,64,29.99,29.77,9,3,9,0.09
2013-2-20,58,53,48,44,39,33,74,59,43,30.05,29.83,5,2,9,0.00
2013-2-21,57,54,51,46,44,42,75,69,60,30.04,29.82,6,2,6,0.00
2013-2-22,60,54,49,52,50,46,92,85,64,29.68,29.57,10,4,14,2.91
2013-2-23,55,53,50,51,50,48,92,88,84,30.02,29.73,0,0,1,0.00
2013-2-24,65,57,52,56,52,48,90,83,66,30.08,30.03,7,3,10,0.00
2013-2-25,66,62,59,55,52,50,76,69,63,30.08,29.97,11,6,19,0.00
2013-2-26,66,61,58,56,51,45,88,70,52,30.01,29.96,10,4,10,0.00
2013-2-27,59,55,53,45,42,39,73,61,48,30.03,29.95,6,3,15,0.00
2013-2-28,54,52,49,41,40,39,70,64,59,30.19,30.17,8,6,12,0.00
2013-3-1,57,52,46,41,39,35,70,61,50,30.18,30.02,4,2,7,0.00
2013-3-2,58,53,47,46,44,41,81,72,63,30.01,29.89,4,1,7,0.00
2013-3-3,56,53,50,48,44,38,85,72,54,29.96,29.76,13,7,14,0.22
2013-3-4,61,52,46,44,40,37,76,65,48,30.14,29.97,4,1,4,0.00
2013-3-5,57,53,49,42,39,35,73,59,50,30.42,30.22,9,5,12,0.00
2013-3-6,56,52,46,40,37,35,67,56,47,30.40,30.21,8,2,8,0.00
2013-3-7,59,55,53,51,47,43,86,76,67,30.11,29.94,4,1,4,0.22
2013-3-8,60,56,52,53,51,50,90,84,74,29.92,29.86,2,1,6,0.01
2013-3-9,68,60,54,56,53,51,91,79,61,29.85,29.73,4,1,4,0.02
2013-3-10,62,60,58,56,52,50,83,75,67,29.81,29.73,3,1,3,0.00
2013-3-11,67,61,56,58,54,49,85,78,60,29.72,29.58,5,1,6,0.00
2013-3-12,68,62,58,48,46,43,66,56,40,29.67,29.59,8,2,12,0.00
2013-3-13,64,60,54,56,49,45,80,68,61,29.74,29.69,10,4,13,0.00
2013-3-14,67,62,59,56,52,43,81,68,53,29.67,29.30,18,9,23,0.00
2013-3-15,60,58,53,46,43,40,66,59,52,29.61,29.39,9,4,13,0.00
2013-3-16,57,53,50,41,38,35,70,58,44,29.86,29.60,9,4,11,0.00
2013-3-17,57,52,46,38,36,33,70,56,40,30.17,30.03,4,2,7,0.00
2013-3-18,56,52,47,48,42,38,79,67,57,30.17,29.99,7,3,9,0.01
2013-3-19,62,58,56,55,51,48,81,77,73,29.91,29.77,11,7,16,0.00
2013-3-20,66,64,58,54,51,48,83,64,55,29.90,29.82,7,3,10,0.00
2013-3-21,67,64,61,56,53,50,82,66,57,29.80,29.53,12,7,14,0.00
2013-3-22,63,59,54,44,39,35,67,49,35,29.72,29.56,13,9,21,0.00
2013-3-23,64,57,50,44,34,18,64,44,22,29.97,29.77,6,2,10,0.00
2013-3-24,64,58,52,54,48,42,79,69,63,30.01,29.93,10,4,16,0.00
2013-3-25,64,61,56,55,52,48,83,74,63,29.94,29.63,13,6,22,0.00
2013-3-26,64,59,57,53,51,47,84,75,56,29.66,29.53,5,2,6,0.00
2013-3-27,67,58,56,55,48,46,72,68,63,29.74,29.66,4,1,4,0.00
2013-3-28,58,58,58,50,50,50,75,75,75,29.87,29.87,0,0,0,0.00
2013-3-29,60,58,55,55,53,51,85,84,82,30.04,30.00,0,0,0,0.00
2013-3-30,70,65,59,56,54,53,81,68,55,29.92,29.85,4,1,4,0.00
2013-3-31,66,63,61,57,56,56,83,78,73,29.77,29.74,6,3,6,0.00
2013-4-1,72,68,59,56,46,40,84,49,31,29.81,29.76,6,4,8,0.00
2013-4-2,68,65,58,56,50,47,75,59,47,29.86,29.61,11,5,18,0.00
2013-4-3,69,65,60,55,47,44,73,54,40,29.66,29.46,9,7,10,0.00
2013-4-4,70,65,58,48,45,43,67,51,38,29.88,29.68,10,6,12,0.00
2013-4-5,68,63,59,55,49,45,71,62,44,29.94,29.78,15,6,18,0.00
2013-4-6,70,65,60,54,52,50,72,63,51,29.80,29.72,3,1,7,0.00
2013-4-7,68,66,62,58,51,47,81,58,48,29.69,29.33,9,4,9,0.01
2013-4-8,62,60,59,52,49,48,75,68,61,29.81,29.40,7,4,7,0.01
2013-4-9,64,60,56,53,49,46,76,68,53,29.99,29.88,4,2,5,0.00
2013-4-10,66,61,56,55,51,47,79,70,58,29.99,29.91,7,3,7,0.00
2013-4-11,69,64,57,56,50,47,75,61,46,29.98,29.91,6,2,8,0.00
2013-4-12,68,63,57,54,51,46,76,65,51,30.06,29.98,6,2,6,0.00
2013-4-13,69,64,59,54,51,47,75,64,51,30.10,30.05,6,2,8,0.00
2013-4-14,77,68,62,54,51,47,72,56,36,30.08,30.02,12,4,12,0.00
2013-4-15,65,61,59,47,44,39,63,53,41,30.06,30.00,11,5,23,0.00
2013-4-16,65,58,53,47,44,40,80,61,40,30.08,30.00,10,5,10,0.05
2013-4-17,66,62,57,42,36,27,58,38,23,30.09,30.05,13,8,22,0.00
2013-4-18,64,60,56,41,33,29,57,36,27,30.08,30.01,14,6,14,0.00
2013-4-19,63,57,54,46,38,34,72,49,41,30.02,29.93,9,3,20,0.04
2013-4-20,66,60,55,44,41,38,60,50,37,30.03,29.94,9,3,12,0.00
2013-4-21,73,64,56,51,41,38,67,45,30,30.04,29.94,7,2,8,0.00
2013-4-22,72,64,58,54,48,42,67,57,42,30.04,29.99,5,2,7,0.00
2013-4-23,71,68,63,56,52,46,66,57,45,30.19,30.07,3,2,5,0.00
2013-4-24,74,68,62,56,52,47,75,58,44,30.32,30.22,3,1,4,0.00
2013-4-25,78,70,63,55,50,45,73,50,36,30.29,30.16,4,1,5,0.00
2013-4-26,80,70,64,56,51,44,68,53,30,30.17,30.00,3,1,7,0.00
2013-4-27,77,72,65,57,50,45,62,46,34,30.00,29.91,7,2,9,0.00
2013-4-28,76,69,64,59,53,43,76,58,33,30.03,29.94,6,1,8,0.00
2013-4-29,78,72,65,59,51,45,61,48,39,30.12,30.05,4,1,8,0.00
2013-4-30,85,77,65,58,52,46,61,43,29,30.10,30.03,6,2,10,0.00
2013-5-1,87,78,70,52,49,45,48,36,27,30.06,29.95,9,3,10,0.00
2013-5-2,87,80,73,50,44,42,37,30,22,29.96,29.89,8,4,10,0.00
2013-5-3,82,75,70,61,52,44,66,45,34,29.92,29.84,4,2,7,0.00
2013-5-4,82,73,68,61,58,55,71,61,41,29.96,29.85,8,1,9,0.00
2013-5-5,82,75,68,64,59,54,70,59,39,30.05,29.94,4,1,6,0.00
2013-5-6,85,79,73,61,55,50,66,46,31,30.07,29.98,10,5,14,0.00
2013-5-7,80,76,72,53,52,49,49,43,37,29.97,29.94,8,4,8,0.00
2013-5-9,72,69,66,58,55,54,70,62,56,29.88,29.84,10,7,13,0.01
2013-5-10,72,68,62,57,55,52,81,62,51,29.91,29.84,6,4,7,0.03
2013-5-11,73,69,63,61,57,52,74,66,56,29.89,29.77,9,3,11,0.00
2013-5-12,76,71,67,60,58,56,76,65,51,29.75,29.66,5,2,7,0.00
2013-5-13,70,70,70,54,54,54,56,56,56,29.68,29.68,3,3,4,0.00
2013-5-14,74,66,61,57,54,51,83,68,48,29.84,29.69,7,4,10,0.13
2013-5-15,74,68,62,58,55,53,73,65,56,29.88,29.83,8,2,12,0.00
2013-5-16,73,68,65,62,58,54,81,71,55,29.90,29.84,9,2,14,0.00
2013-5-17,78,71,67,63,60,55,85,68,48,29.91,29.82,5,2,8,0.00
2013-5-18,78,72,68,64,61,60,79,69,55,29.99,29.90,4,1,5,0.00
2013-5-19,83,76,71,67,61,54,74,61,41,29.97,29.90,4,1,4,0.00
2013-5-20,84,77,71,68,63,60,76,63,52,29.92,29.87,3,1,3,0.00
2013-5-21,85,78,73,65,59,54,70,53,35,29.93,29.85,5,1,6,0.00
2013-5-22,80,75,70,66,62,60,74,65,55,29.88,29.82,4,1,9,0.00
2013-5-23,79,75,73,65,59,53,75,58,41,29.65,29.58,12,7,12,0.00
2013-5-24,78,73,69,60,54,50,57,50,44,29.88,29.72,6,3,10,0.00
2013-5-25,76,71,67,61,55,50,68,57,47,29.93,29.89,8,4,9,0.00
2013-5-26,80,74,67,59,55,48,64,52,36,29.95,29.85,7,2,10,0.00
2013-5-27,77,72,67,54,47,43,56,41,33,29.97,29.91,6,2,7,0.00
2013-5-28,73,71,65,62,56,49,74,60,45,29.94,29.78,7,2,8,0.00
2013-5-29,80,73,68,65,57,50,73,57,42,29.76,29.58,7,2,12,0.00
2013-5-30,84,76,71,64,58,52,75,55,36,29.74,29.66,6,2,7,0.00
2013-5-31,80,75,70,61,52,45,69,47,31,29.78,29.66,8,3,8,0.00
2013-6-1,71,68,66,59,49,44,73,52,45,29.86,29.79,6,3,9,0.02
2013-6-2,76,69,63,59,55,49,79,63,41,29.79,29.67,9,2,12,0.06
2013-6-3,77,72,66,60,54,52,66,55,42,29.88,29.83,9,4,9,0.00
2013-6-4,77,73,67,63,59,53,71,61,44,29.87,29.82,8,2,10,0.00
2013-6-5,77,72,68,60,55,53,64,55,46,29.95,29.88,7,3,8,0.00
2013-6-6,79,74,68,65,60,56,76,63,48,30.01,29.93,7,3,9,0.00
2013-6-7,78,75,70,63,57,48,77,55,35,29.99,29.84,5,1,5,0.00
2013-6-8,84,76,70,64,60,56,70,59,40,29.86,29.79,6,2,12,0.02
2013-6-9,80,74,68,65,61,58,72,65,48,29.94,29.85,8,2,12,0.00
2013-6-10,80,76,70,64,61,56,68,59,49,29.95,29.81,9,2,11,0.00
2013-6-11,85,79,73,64,59,54,68,52,37,29.83,29.61,9,2,17,0.02
2013-6-12,80,73,67,63,56,51,79,55,44,29.77,29.65,6,2,10,0.07
2013-6-13,77,71,67,61,58,56,82,65,51,29.82,29.74,8,3,14,0.01
2013-6-14,81,74,68,62,60,58,76,62,48,29.92,29.83,7,2,0,0.00
2013-6-15,81,76,70,67,61,58,69,61,51,29.93,29.89,8,2,0,0.00
2013-6-16,87,86,84,66,65,64,52,50,47,29.94,29.93,3,2,3,0.00
2013-6-17,90,82,74,68,63,55,71,54,34,29.97,29.91,5,2,7,0.00
2013-6-18,91,86,79,62,59,56,50,41,32,29.96,29.91,13,6,21,0.00
2013-6-19,91,85,80,61,57,54,46,39,30,29.92,29.84,14,8,21,0.00
2013-6-20,92,87,82,61,56,52,47,35,29,29.95,29.84,15,9,22,0.00
2013-6-21,88,83,79,60,57,53,50,42,35,29.94,29.88,12,8,19,0.00
2013-6-22,94,85,76,57,52,40,50,33,16,29.92,29.82,13,4,21,0.00
2013-6-23,91,84,78,69,60,51,66,46,31,29.85,29.77,7,1,9,0.00
2013-6-24,90,83,76,70,65,51,76,56,33,29.80,29.74,8,1,17,0.00
2013-6-25,93,84,78,67,62,57,60,47,31,29.79,29.74,5,2,8,0.00
2013-6-26,91,82,77,72,63,58,71,54,38,29.87,29.77,5,2,7,0.00
2013-6-27,91,83,77,69,65,61,75,54,40,29.90,29.83,8,2,15,0.00
2013-6-28,88,80,76,71,65,60,77,60,45,29.91,29.86,6,3,12,0.00
2013-6-29,84,79,74,70,61,51,78,56,38,29.91,29.74,8,3,14,0.00
2013-6-30,85,78,73,64,56,50,66,48,34,29.85,29.75,9,4,20,0.00
2013-7-1,86,78,72,65,57,48,68,50,26,30.00,29.86,9,3,17,0.00
2013-7-2,86,79,73,65,61,51,72,55,33,30.01,29.92,7,2,12,0.00
2013-7-3,88,80,75,66,57,53,71,47,36,29.96,29.86,7,3,11,0.00
2013-7-4,88,81,75,65,56,50,59,42,33,29.91,29.83,10,3,16,0.00
2013-7-5,88,82,76,62,55,50,45,40,32,29.90,29.84,11,4,16,0.00
2013-7-6,86,82,77,64,59,56,60,47,39,29.89,29.82,12,5,18,0.00
2013-7-7,88,84,78,63,61,58,56,46,40,29.94,29.83,11,7,20,0.00
2013-7-8,93,86,80,60,57,55,50,39,28,29.96,29.91,11,6,14,0.00
2013-7-9,92,86,81,63,58,54,47,39,32,29.96,29.81,12,6,15,0.00
2013-7-10,91,84,79,67,62,57,60,48,33,29.84,29.72,7,4,15,0.00
2013-7-11,92,84,79,68,60,54,66,44,33,29.83,29.74,6,2,8,0.00
2013-7-12,82,81,79,62,61,61,54,52,49,29.83,29.81,1,0,2,0.00
2013-7-17,82,80,77,61,58,56,54,46,41,29.96,29.92,13,8,20,0.00
2013-7-18,86,80,76,60,56,51,55,43,31,30.00,29.94,13,7,22,0.00
2013-7-19,87,82,77,56,54,49,47,39,31,29.99,29.89,11,6,18,0.00
2013-7-20,91,83,76,58,54,49,47,37,26,29.90,29.79,10,4,18,0.00
2013-7-21,93,86,78,57,55,50,44,35,28,29.87,29.80,10,4,16,0.00
2013-7-22,86,81,78,64,59,53,64,48,37,29.88,29.83,12,7,22,0.00
2013-7-23,88,81,75,60,53,45,56,40,24,29.88,29.82,10,5,17,0.00
2013-7-24,95,86,77,60,50,46,37,30,22,29.90,29.85,9,3,18,0.00
2013-7-25,91,85,79,69,58,51,60,42,28,29.92,29.84,7,2,10,0.00
2013-7-26,93,86,79,70,61,52,59,44,28,29.88,29.80,5,1,7,0.00
2013-7-27,93,87,81,67,58,53,51,37,29,29.91,29.82,10,3,15,0.00
2013-7-28,92,87,82,60,57,53,48,36,31,29.98,29.90,10,5,14,0.00
2013-7-29,94,87,81,58,55,52,46,34,24,29.99,29.90,11,5,25,0.00
2013-7-30,95,88,84,72,61,54,63,40,30,29.91,29.74,7,2,11,0.00
2013-7-31,97,90,84,67,63,58,53,41,34,29.78,29.69,9,4,13,0.00
2013-8-1,88,85,81,67,62,57,61,47,37,29.92,29.78,12,8,17,0.00
2013-8-2,90,85,80,62,58,53,52,41,32,29.94,29.90,11,6,18,0.00
2013-8-3,92,86,80,62,57,52,50,38,29,29.93,29.89,12,5,20,0.00
2013-8-4,95,88,80,61,56,50,44,34,22,29.92,29.88,12,5,16,0.00
2013-8-5,89,84,79,62,55,48,49,38,25,29.95,29.89,14,8,22,0.00
2013-8-6,89,84,80,58,53,48,43,36,26,29.92,29.85,15,9,30,0.00
2013-8-7,90,84,81,58,54,50,43,36,28,29.92,29.84,15,9,21,0.00
2013-8-8,93,86,81,59,54,49,43,34,24,29.93,29.89,16,8,21,0.00
2013-8-9,94,86,80,62,56,50,49,37,26,29.91,29.79,10,6,15,0.00
2013-8-10,93,84,78,73,62,52,77,50,30,29.80,29.63,8,2,10,0.00
2013-8-11,90,84,78,70,58,47,76,44,24,29.83,29.66,11,5,20,0.00
2013-8-12,91,86,80,62,55,52,50,37,27,29.91,29.84,11,5,18,0.00
2013-8-13,93,87,80,58,54,50,43,34,26,29.91,29.83,12,4,17,0.00
2013-8-14,94,88,81,58,53,47,43,32,21,29.85,29.79,14,4,17,0.00
2013-8-15,94,87,82,60,56,52,43,35,24,29.86,29.79,12,5,18,0.00
2013-8-16,88,84,79,66,63,58,63,49,41,29.87,29.82,12,8,19,0.00
2013-8-17,89,84,79,66,64,61,63,52,39,29.91,29.83,13,8,20,0.00
2013-8-18,86,82,79,61,58,54,50,45,35,29.96,29.88,9,5,14,0.00
2013-8-20,94,87,80,60,54,48,45,34,21,29.88,29.80,10,5,20,0.00
2013-8-21,89,83,80,62,57,51,52,42,33,29.88,29.84,11,5,18,0.00
2013-8-22,88,82,77,64,60,55,56,47,36,29.86,29.81,9,4,18,0.00
2013-8-23,90,83,78,62,56,49,53,40,29,29.92,29.83,9,4,17,0.00
2013-8-24,88,82,76,69,57,48,61,43,32,29.93,29.86,7,2,14,0.00
2013-8-25,87,82,77,69,62,55,64,51,44,29.87,29.82,6,1,12,0.00
2013-8-26,91,83,78,73,63,57,68,51,34,29.88,29.82,7,1,10,0.00
2013-8-27,92,84,78,73,65,59,68,53,35,29.89,29.82,6,2,11,0.00
2013-8-28,93,86,80,73,66,61,62,51,37,29.86,29.80,10,2,12,0.00
2013-8-29,93,85,80,73,67,59,72,56,32,29.89,29.83,9,2,10,0.00
2013-8-30,93,85,80,72,63,57,74,49,34,29.92,29.83,5,2,7,0.00
2013-8-31,88,81,79,71,59,52,72,48,35,29.98,29.89,9,4,14,0.00
2013-9-1,87,80,75,62,55,45,64,43,30,30.05,29.97,8,4,11,0.00
2013-9-2,88,81,75,63,52,42,52,37,26,30.07,29.99,6,2,12,0.00
2013-9-3,86,79,75,68,63,59,67,58,43,30.07,29.96,9,2,18,0.00
2013-9-4,85,80,76,67,58,55,70,49,36,30.10,29.99,9,4,18,0.00
2013-9-5,82,77,71,58,54,50,57,46,37,30.10,29.96,7,3,9,0.00
2013-9-6,82,77,72,66,61,55,66,58,50,29.97,29.88,8,2,12,0.00
2013-9-7,80,77,75,68,65,60,74,67,60,30.00,29.92,4,1,6,0.00
2013-9-8,87,79,72,66,57,49,66,49,34,30.11,30.00,10,3,15,0.00
2013-9-9,85,78,72,54,51,47,53,39,29,30.14,30.06,10,3,12,0.00
2013-9-10,83,78,73,67,59,49,68,54,38,30.09,29.99,6,1,13,0.00
2013-9-11,84,80,74,71,66,61,74,64,52,30.02,29.93,6,1,8,0.00
2013-9-12,88,82,75,73,67,64,73,62,48,29.95,29.90,5,1,9,0.00
2013-9-13,87,81,77,73,68,63,84,65,50,29.95,29.89,7,2,10,0.00
2013-9-14,86,79,74,64,58,49,60,50,29,30.01,29.92,8,3,12,0.00
2013-9-15,85,77,72,62,55,38,66,48,21,30.00,29.88,7,2,9,0.00
2013-9-16,80,77,73,68,62,56,69,62,44,29.89,29.63,8,3,16,0.00
2013-9-17,81,76,72,67,63,59,73,63,50,29.72,29.64,8,3,14,0.00
2013-9-18,86,79,74,64,59,53,69,52,34,29.67,29.61,8,4,14,0.00
2013-9-19,83,77,72,66,61,55,69,57,44,29.74,29.66,7,2,13,0.00
2013-9-20,82,77,72,67,63,58,70,63,46,29.93,29.74,6,2,11,0.00
2013-9-21,82,75,72,64,60,58,74,60,47,30.02,29.93,7,3,9,0.00
2013-9-22,76,72,68,59,54,51,60,53,43,30.07,30.02,10,4,15,0.00
2013-9-23,78,71,66,54,50,47,63,48,36,30.05,29.92,8,3,11,0.00
2013-9-24,80,73,66,62,56,50,65,55,41,29.94,29.89,6,2,10,0.00
2013-9-25,80,74,68,67,62,59,78,67,51,30.00,29.94,6,2,8,0.00
2013-9-26,82,75,70,66,64,59,80,68,46,30.00,29.89,5,2,8,0.00
2013-9-27,84,77,70,66,62,54,71,61,37,29.91,29.85,6,2,12,0.00
2013-9-28,81,75,70,67,64,60,75,68,54,29.94,29.88,7,2,12,0.00
2013-9-29,80,76,70,70,64,59,81,68,58,29.93,29.86,7,2,8,0.00
2013-9-30,81,76,70,70,66,62,81,72,65,29.88,29.63,13,4,21,0.00
2013-10-1,77,75,68,71,69,63,84,82,74,29.65,29.58,12,8,18,0.06
2013-10-3,64,61,60,56,50,45,84,67,56,30.25,29.93,9,5,15,0.14
2013-10-4,61,59,57,46,44,42,64,59,54,30.34,30.24,8,5,12,0.00
2013-10-5,64,59,55,45,43,41,61,55,45,30.34,30.25,8,5,14,0.00
2013-10-6,67,61,56,48,44,38,66,55,43,30.32,30.24,5,3,8,0.00
2013-10-7,72,64,57,49,47,44,67,55,38,30.33,30.27,8,4,12,0.00
2013-10-8,75,67,61,55,50,46,62,55,41,30.32,30.24,7,2,7,0.00
2013-10-9,75,68,60,58,53,44,70,60,37,30.26,30.14,5,2,9,0.00
2013-10-10,72,68,64,64,60,54,85,76,64,30.15,30.04,4,0,7,0.03
2013-10-11,80,71,63,69,62,58,85,74,51,30.18,30.08,4,1,7,0.00
2013-10-12,84,73,66,70,65,62,87,77,52,30.20,30.13,4,1,7,0.00
2013-10-13,82,74,68,68,64,57,90,71,45,30.16,30.09,3,1,5,0.00
2013-10-14,81,74,68,64,57,52,69,57,43,30.15,30.07,3,1,8,0.00
2013-10-15,76,72,67,66,61,56,83,70,61,30.13,29.96,5,1,9,0.00
2013-10-16,74,71,65,66,63,60,87,77,61,29.96,29.57,7,2,14,0.24
2013-10-17,72,68,62,65,52,39,80,59,33,29.74,29.50,11,4,18,0.02
2013-10-18,75,68,63,57,50,46,67,53,38,30.01,29.74,6,3,12,0.00
2013-10-19,67,66,66,54,52,49,67,59,53,30.05,30.02,5,4,7,0.00
2013-10-21,73,69,64,57,53,46,75,58,44,30.27,30.19,6,2,7,0.00
2013-10-22,75,67,59,60,56,52,80,69,54,30.20,30.11,3,1,6,0.00
2013-10-23,79,70,60,57,53,48,78,58,43,30.20,30.13,10,3,18,0.00
2013-10-24,76,70,65,54,51,44,68,52,40,30.20,30.14,9,3,10,0.00
2013-10-25,78,68,61,53,48,44,62,49,32,30.17,30.09,5,2,7,0.00
2013-10-26,78,67,59,47,42,36,56,41,28,30.18,30.12,5,1,7,0.00
2013-10-27,76,67,58,56,46,36,70,48,32,30.16,30.07,4,0,6,0.00
2013-10-28,74,66,58,60,55,50,78,69,53,30.11,30.05,4,0,6,0.00
2013-10-29,75,67,58,62,57,52,81,72,52,30.06,29.98,2,0,4,0.00
2013-10-30,74,67,60,62,57,53,81,70,61,30.07,30.00,3,0,6,0.00
2013-10-31,77,69,63,54,51,45,69,54,44,30.16,30.05,9,2,14,0.00
2013-11-1,74,66,61,53,51,47,72,57,45,30.20,30.13,6,2,10,0.00
2013-11-2,71,64,58,56,52,50,76,65,52,30.16,30.08,4,1,6,0.00
2013-11-3,63,62,62,56,55,55,77,77,76,30.10,30.10,0,0,0,0.00
2013-11-6,64,63,61,60,59,57,88,85,81,29.67,29.57,7,2,8,0.76
2013-11-7,70,65,60,58,51,38,86,63,35,30.11,29.67,12,4,18,0.00
2013-11-8,73,64,56,54,49,40,74,59,45,30.16,30.09,5,0,5,0.00
2013-11-9,74,64,57,58,54,50,81,69,48,30.11,30.01,2,0,5,0.00
2013-11-10,71,64,58,61,58,53,87,80,68,30.01,29.86,4,1,5,0.00
2013-11-11,72,67,62,65,62,58,90,84,75,29.98,29.82,13,5,23,1.02
2013-11-12,73,68,64,63,61,59,88,78,68,30.07,29.97,9,4,11,0.00
2013-11-13,71,64,62,60,56,54,86,74,55,30.07,29.95,8,3,11,0.12
2013-11-14,65,61,58,57,54,53,92,78,67,29.98,29.86,11,5,17,0.76
2013-11-15,65,60,57,54,52,51,80,74,62,30.12,29.90,9,5,14,0.00
2013-11-16,62,59,58,52,50,46,79,71,63,30.18,30.11,12,7,20,0.00
2013-11-17,63,58,55,47,44,42,69,60,49,30.19,30.11,7,3,13,0.00
2013-11-18,63,58,53,48,45,44,72,64,53,30.16,30.10,7,3,13,0.00
2013-11-19,66,60,54,55,49,45,77,67,53,30.16,30.02,7,2,9,0.00
2013-11-20,70,66,61,64,60,55,90,80,65,30.02,29.86,10,5,19,0.57
2013-11-21,70,66,58,61,56,53,89,72,60,29.89,29.76,9,3,15,0.21
2013-11-22,68,62,57,56,54,50,90,76,54,29.81,29.71,4,1,5,0.02
2013-11-23,69,63,56,61,54,51,86,74,60,29.81,29.74,10,3,21,0.00
2013-11-24,68,63,60,61,55,50,88,76,59,29.79,29.68,15,4,23,0.78
2013-11-25,67,61,55,53,50,47,86,69,50,29.74,29.69,2,0,4,0.00
2013-11-26,66,59,56,55,52,47,87,76,56,29.78,29.69,5,0,8,0.02
2013-11-30,58,57,55,50,48,45,77,72,68,30.11,30.04,7,2,12,0.06
2013-12-1,66,62,55,58,54,48,82,76,70,30.07,29.92,12,4,15,0.09
2013-12-2,64,61,58,59,56,52,92,83,77,30.10,29.95,11,5,18,1.11
2013-12-3,59,51,46,53,42,36,81,71,62,30.21,30.08,19,12,29,0.01
2013-12-4,51,46,44,41,37,34,85,70,60,30.17,30.08,8,3,12,0.15
2013-12-5,61,51,44,39,35,29,76,57,31,30.11,30.05,4,0,6,0.00
2013-12-6,62,52,43,46,41,34,74,65,54,30.09,29.88,1,0,4,0.00
2013-12-7,60,54,50,50,42,30,85,66,47,30.24,29.86,6,2,8,0.04
2013-12-8,54,49,45,33,28,22,59,44,29,30.43,30.24,6,2,10,0.00
2013-12-9,60,52,44,44,34,27,63,51,34,30.43,30.24,6,1,7,0.00
2013-12-10,60,54,47,44,39,31,78,58,40,30.40,30.13,13,4,22,0.01
2013-12-11,47,44,42,31,24,18,55,46,33,30.54,30.40,15,8,26,0.00
2013-12-12,52,46,41,37,29,19,67,52,30,30.48,30.26,10,3,15,0.00
2013-12-13,51,48,46,42,40,37,81,72,66,30.27,30.16,6,2,9,0.00
2013-12-14,59,51,44,45,42,38,83,72,56,30.39,30.22,2,0,2,0.00
2013-12-15,64,55,48,51,47,43,82,74,56,30.39,30.32,3,0,5,0.00
2013-12-16,56,53,51,48,44,39,84,72,59,30.41,30.31,11,5,16,0.00
2013-12-19,54,50,46,40,38,36,75,65,50,30.32,30.25,9,3,11,0.00
2013-12-20,59,50,43,42,38,35,77,65,44,30.49,30.32,3,0,4,0.00
2013-12-21,60,51,44,46,42,39,81,72,59,30.54,30.47,2,0,4,0.00
2013-12-22,62,52,44,42,39,34,77,62,37,30.53,30.41,4,1,5,0.00
2013-12-23,59,51,45,44,41,36,79,69,53,30.42,30.31,4,0,7,0.00
2013-12-31,51,50,50,41,41,40,71,70,69,30.20,30.18,6,4,7,0.00
2014-1-1,51,50,48,47,43,40,89,79,70,30.18,30.10,6,3,11,0.39
2014-1-2,58,53,49,47,45,42,89,76,64,30.15,30.08,4,1,5,0.06